Fergus Falls, MN

3:25 AM CDT on July 23, 2017 (GMT -0500)
Fergus Falls Municipal-Mickelson

Weather History for KFFM - February, 2014

Change the Weather History Date:

Wednesday, February 26, 2014

  Actual Average Record
Temperature  
Mean Temperature -1 °F -  
Max Temperature 14 °F 30 °F 54 °F (1958)
Min Temperature -16 °F 9 °F -17 °F (1950)
Degree Days  
Heating Degree Days 66    
Moisture  
Dew Point -10 °F    
Average Humidity 69    
Maximum Humidity 79    
Minimum Humidity 49    
Precipitation  
Precipitation 0.00 in - - ()
Sea Level Pressure  
Sea Level Pressure 29.96 in    
Wind  
Wind Speed 11 mph (NW)    
Max Wind Speed 32 mph    
Max Gust Speed 39 mph    
Visibility 8 miles    
Events Snow    
Averages and records for this station are not official NWS values.
T = Trace of Precipitation, MM = Missing Value Source: NWS Daily Summary

Daily Weather History Graph

Daily Weather History Graph

Search for Another Location

Airport or City:

Trip Planner

Search our weather history database for the weather conditions in past years. The results will help you decide how hot, cold, wet, or windy it might be!

Date:

Astronomy

Feb. 26, 2014 Rise Set
Actual Time 7:09 AM CST 6:06 PM CST
Civil Twilight 6:38 AM CST 6:36 PM CST
Nautical Twilight 6:04 AM CST 7:11 PM CST
Astronomical Twilight 5:29 AM CST 7:46 PM CST
Moon 5:03 AM CST (2/26) 3:16 PM CST (2/26)
Length of Visible Light 11h 58m
Length of Day
10h 57m
Waning Crescent, 10% of the Moon is Illuminated
Feb 26
Waning Crescent
Mar 1
New
Mar 8
First Quarter
Mar 16
Full
Mar 23
Last Quarter

Hourly Weather History & Observations

Time (CST) Temp. Windchill Dew Point Humidity Pressure Visibility Wind Dir Wind Speed Gust Speed Precip Events Conditions
12:13 AM -14.8 °F - -20.2 °F 77% 30.35 in 10.0 mi Calm Calm - N/A   Clear
12:33 AM -14.8 °F - -20.2 °F 77% 30.34 in 10.0 mi Calm Calm - N/A   Clear
12:54 AM -16.6 °F - -23.8 °F 70% 30.32 in 10.0 mi Calm Calm - N/A   Clear
1:13 AM -16.6 °F - -22.0 °F 76% 30.31 in 10.0 mi Calm Calm - N/A   Clear
1:33 AM -16.6 °F - -22.0 °F 76% 30.30 in 10.0 mi Calm Calm - N/A   Clear
1:54 AM -16.6 °F - -22.0 °F 76% 30.29 in 10.0 mi Calm Calm - N/A   Clear
2:13 AM -16.6 °F - -22.0 °F 76% 30.27 in 10.0 mi Calm Calm - N/A   Clear
2:33 AM -16.6 °F - -22.0 °F 76% 30.25 in 10.0 mi Calm Calm - N/A   Clear
2:54 AM -16.6 °F -32.9 °F -22.0 °F 76% 30.23 in 10.0 mi WSW 6.9 mph - N/A   Clear
3:13 AM -16.6 °F -34.4 °F -23.8 °F 70% 30.21 in 10.0 mi WSW 8.1 mph - N/A   Clear
3:33 AM -14.8 °F -32.2 °F -20.2 °F 77% 30.19 in 10.0 mi WSW 8.1 mph - N/A   Clear
3:53 AM -11.2 °F - -18.4 °F 70% 30.16 in 10.0 mi Calm Calm - N/A   Clear
4:13 AM -13.0 °F - -18.4 °F 77% 30.15 in 10.0 mi Calm Calm - N/A   Clear
4:33 AM -14.8 °F - -20.2 °F 77% 30.13 in 10.0 mi Calm Calm - N/A   Clear
4:53 AM -14.8 °F - -20.2 °F 77% 30.11 in 10.0 mi Calm Calm - N/A   Clear
5:13 AM -13.0 °F - -20.2 °F 70% 30.09 in 10.0 mi Calm Calm - N/A   Clear
5:34 AM -11.2 °F -30.1 °F -18.4 °F 70% 30.07 in 10.0 mi SW 10.4 mph - N/A   Clear
5:53 AM -9.4 °F -27.9 °F -16.6 °F 71% 30.05 in 10.0 mi SSW 10.4 mph - N/A   Clear
6:13 AM -11.2 °F -30.1 °F -18.4 °F 70% 30.03 in 10.0 mi SSW 10.4 mph - N/A   Clear
6:33 AM -9.4 °F -28.9 °F -16.6 °F 71% 30.00 in 10.0 mi SW 11.5 mph - N/A   Clear
6:53 AM -9.4 °F -26.8 °F -16.6 °F 71% 29.98 in 10.0 mi SW 9.2 mph - N/A   Clear
7:13 AM -5.8 °F -24.4 °F -13.0 °F 71% 29.96 in 10.0 mi SW 11.5 mph - N/A   Scattered Clouds
7:34 AM -4.0 °F -20.2 °F -11.2 °F 71% 29.94 in 10.0 mi SW 9.2 mph - N/A   Clear
7:53 AM -2.2 °F -19.9 °F -9.4 °F 71% 29.92 in 10.0 mi WSW 11.5 mph - N/A   Clear
8:13 AM -0.4 °F -20.5 °F -7.6 °F 72% 29.91 in 10.0 mi West 16.1 mph - N/A   Clear
8:34 AM 1.4 °F -18.8 °F -7.6 °F 66% 29.88 in 10.0 mi West 17.3 mph - N/A   Mostly Cloudy
8:53 AM 1.4 °F -18.8 °F -7.6 °F 66% 29.87 in 10.0 mi West 17.3 mph 21.9 mph N/A   Mostly Cloudy
9:13 AM 3.2 °F -17.6 °F -5.8 °F 66% 29.84 in 10.0 mi West 19.6 mph - N/A   Scattered Clouds
9:34 AM 3.2 °F -18.1 °F -5.8 °F 66% 29.82 in 10.0 mi West 20.7 mph - N/A   Scattered Clouds
9:53 AM 3.2 °F -17.6 °F -5.8 °F 66% 29.82 in 10.0 mi West 19.6 mph 25.3 mph N/A   Scattered Clouds
10:13 AM 5.0 °F -13.0 °F -4.0 °F 66% 29.80 in 10.0 mi West 15.0 mph - N/A   Clear
10:33 AM 6.8 °F -11.8 °F -2.2 °F 67% 29.78 in 10.0 mi West 17.3 mph - N/A   Clear
10:53 AM 8.6 °F -12.3 °F -2.2 °F 62% 29.75 in 10.0 mi West 24.2 mph 29.9 mph N/A   Clear
11:13 AM 8.6 °F -11.0 °F -0.4 °F 67% 29.74 in 10.0 mi West 20.7 mph 26.5 mph N/A   Clear
11:33 AM 10.4 °F -9.1 °F 1.4 °F 67% 29.73 in 5.0 mi West 21.9 mph - N/A   Haze
11:53 AM 10.4 °F -9.9 °F 1.4 °F 67% 29.73 in 7.0 mi West 24.2 mph 29.9 mph N/A   Clear
12:14 PM 12.2 °F -7.1 °F 3.2 °F 67% 29.72 in 10.0 mi WNW 23.0 mph - N/A   Scattered Clouds
12:33 PM 14.0 °F -6.5 °F 3.2 °F 62% 29.71 in 1.8 mi WNW 28.8 mph 36.8 mph N/A   Haze
12:53 PM 14.0 °F -7.4 °F 5.0 °F 67% 29.71 in 2.0 mi NW 32.2 mph - N/A   Haze
1:14 PM 14.0 °F -7.1 °F 5.0 °F 67% 29.70 in 1.2 mi NW 31.1 mph 39.1 mph N/A   Haze
1:33 PM 14.0 °F -7.4 °F 5.0 °F 67% 29.70 in 1.0 mi NW 32.2 mph 38.0 mph N/A   Haze
1:53 PM 12.2 °F -9.3 °F 5.0 °F 73% 29.71 in 1.2 mi NW 29.9 mph 36.8 mph N/A   Haze
2:13 PM 12.2 °F -8.9 °F 3.2 °F 67% 29.71 in 4.0 mi NNW 28.8 mph 35.7 mph N/A   Haze
2:33 PM 10.4 °F -9.9 °F 3.2 °F 73% 29.72 in 1.2 mi NNW 24.2 mph 34.5 mph N/A Snow Light Snow
2:54 PM 12.2 °F -7.5 °F 1.4 °F 62% 29.74 in 10.0 mi NNW 24.2 mph 33.4 mph N/A   Scattered Clouds
3:13 PM 10.4 °F -9.5 °F 1.4 °F 67% 29.75 in 3.0 mi NNW 23.0 mph 34.5 mph N/A Snow Light Snow
3:33 PM 10.4 °F -10.3 °F -0.4 °F 62% 29.76 in 7.0 mi North 25.3 mph 32.2 mph N/A   Scattered Clouds
3:54 PM 10.4 °F -7.2 °F -0.4 °F 62% 29.77 in 10.0 mi North 17.3 mph 29.9 mph N/A   Scattered Clouds
4:13 PM 10.4 °F -8.6 °F 1.4 °F 67% 29.79 in 7.0 mi NNW 20.7 mph 26.5 mph N/A   Scattered Clouds
4:33 PM 8.6 °F -11.9 °F 3.2 °F 79% 29.79 in 1.0 mi NNW 23.0 mph 27.6 mph N/A Snow Light Snow
4:54 PM 8.6 °F -12.7 °F 3.2 °F 79% 29.81 in 0.8 mi NNW 25.3 mph 29.9 mph N/A Snow Light Snow
5:13 PM 6.8 °F -15.9 °F 1.4 °F 79% 29.82 in 0.5 mi North 27.6 mph 36.8 mph N/A Snow Light Snow
5:33 PM 3.2 °F -18.1 °F -2.2 °F 78% 29.84 in 0.8 mi North 20.7 mph 29.9 mph N/A Snow Light Snow
5:54 PM 3.2 °F -19.0 °F -4.0 °F 72% 29.87 in 2.5 mi North 23.0 mph 32.2 mph N/A   Haze
6:13 PM 1.4 °F -22.7 °F -5.8 °F 72% 29.88 in 4.0 mi North 26.5 mph 33.4 mph N/A   Haze
6:33 PM 1.4 °F -23.5 °F -7.6 °F 66% 29.90 in 10.0 mi North 28.8 mph 36.8 mph N/A   Clear
6:54 PM -0.4 °F -23.3 °F -7.6 °F 72% 29.92 in 10.0 mi North 21.9 mph 29.9 mph N/A   Clear
7:13 PM -2.2 °F -26.2 °F -9.4 °F 71% 29.93 in 10.0 mi North 23.0 mph 34.5 mph N/A   Clear
7:33 PM -2.2 °F -25.2 °F -11.2 °F 66% 29.95 in 10.0 mi North 20.7 mph 31.1 mph N/A   Clear
7:54 PM -2.2 °F -28.0 °F -13.0 °F 60% 29.96 in 10.0 mi North 27.6 mph 33.4 mph N/A   Clear
8:13 PM -4.0 °F -28.1 °F -14.8 °F 60% 29.97 in 7.0 mi North 21.9 mph 36.8 mph N/A   Clear
8:33 PM -5.8 °F -32.4 °F -14.8 °F 65% 29.98 in 10.0 mi North 26.5 mph 36.8 mph N/A   Clear
8:53 PM -5.8 °F -29.4 °F -16.6 °F 60% 30.00 in 10.0 mi North 19.6 mph 31.1 mph N/A   Clear
9:13 PM -5.8 °F -29.9 °F -16.6 °F 60% 30.01 in 10.0 mi North 20.7 mph 28.8 mph N/A   Clear
9:33 PM -7.6 °F -32.3 °F -16.6 °F 65% 30.03 in 10.0 mi North 20.7 mph 27.6 mph N/A   Clear
9:54 PM -7.6 °F -32.9 °F -16.6 °F 65% 30.04 in 10.0 mi NNW 21.9 mph 27.6 mph N/A   Clear
10:13 PM -7.6 °F -30.5 °F -16.6 °F 65% 30.05 in 10.0 mi North 17.3 mph 29.9 mph N/A   Clear
10:33 PM -7.6 °F -29.8 °F -18.4 °F 59% 30.06 in 10.0 mi North 16.1 mph 28.8 mph N/A   Clear
10:54 PM -9.4 °F -29.8 °F -20.2 °F 59% 30.07 in 10.0 mi North 12.7 mph 19.6 mph N/A   Clear
11:13 PM -9.4 °F -26.8 °F -22.0 °F 54% 30.08 in 10.0 mi North 9.2 mph 17.3 mph N/A   Clear
11:33 PM -9.4 °F -27.9 °F -23.8 °F 49% 30.09 in 10.0 mi North 10.4 mph 18.4 mph N/A   Clear
11:54 PM -11.2 °F -31.1 °F -23.8 °F 54% 30.09 in 10.0 mi North 11.5 mph 20.7 mph N/A   Clear